Zurück zum Katalog

ARSAT 2

AktivKommunikationGEO
NORAD 40941·PAYLOAD·🇦🇷 Argentina

Gestartet Sep 30, 2015 von Guiana Space Centre

Loading…

TLE

AktuellSource: Space-Track

Epoche: Sep 14, 2026, 13:25 UTC

1 40941U 15054B   26257.55911082 -.00000233  00000-0  00000-0 0  9995
2 40941   0.0191  78.0915 0001809  86.6142 309.1105  1.00272295 40209

Verfolge ARSAT 2 in Echtzeit mit AllMySat

Download on the App Store